Location: Black River Observatory
(43.1000°N, 82.6200°W)
Time: 01:36:56
(UTC-05:00)

Daily predictions for brighter satellites

Satellite Brightness Start Highest point End
(mag) Time Altitude Azimuth Time Altitude Azimuth Time Altitude Azimuth
Cosmos 2237 Rocket 4.4 03:57:43 18° NNE 03:57:43 18° NNE 03:59:06 10° NNE
Atlas Centaur 2 4.1 04:16:09 30° S 04:16:09 30° S 04:22:18 10° ESE
Lacrosse 5 rocket 3.7 04:23:56 25° E 04:23:56 25° E 04:26:42 10° ENE
SL-16 R/B 2.8 04:29:35 53° E 04:29:35 53° E 04:34:49 10° NNE
Cosmos 1725 Rocket 4.5 04:27:11 10° N 04:33:16 56° ENE 04:39:19 10° SSE
CZ-4B R/B 3.4 04:45:09 10° NNE 04:50:51 74° ESE 04:56:29 10° S
USA 229 DEB 3.8 04:49:12 52° NNW 04:51:13 80° NE 04:58:34 10° SE
USA 229 3.8 04:49:15 51° NNW 04:51:18 80° NE 04:58:39 10° SE
Cosmos 1503 Rocket 4.2 04:51:37 68° ENE 04:51:37 68° ENE 04:56:45 10° SSE
Cosmos 2369 Rocket 4.3 04:48:58 10° N 04:53:13 22° NE 04:57:30 10° E
Cosmos 2297 3.7 04:54:23 71° S 04:54:23 71° S 04:59:28 10° SSE
CZ-2C R/B 4.4 04:49:40 10° SSE 04:54:01 51° ENE 04:54:19 50° ENE
Cosmos 2016 Rocket 4.2 04:56:33 51° SSW 04:56:33 51° SSW 05:01:03 10° S
IRS-1C Rocket 4.1 04:56:20 10° NNE 05:01:37 78° ESE 05:06:52 10° S
Meteor 2-12 Rocket 4.3 04:56:27 13° N 05:02:01 85° E 05:08:05 10° S
Cosmos 1862 Rocket 4.3 05:12:48 42° S 05:12:48 42° S 05:15:46 10° S
PAYLOAD B 4.1 05:07:37 10° N 05:13:08 64° WNW 05:13:29 63° W
In-Cosmos 22 Rocket 4.5 05:17:00 50° NW 05:17:00 50° NW 05:21:51 10° N
Meteor 1-28 Rocket 4.0 05:15:12 10° SSE 05:17:46 42° SSE 05:17:46 42° SSE
Cosmos 1864 Rocket 4.4 05:17:30 10° NNW 05:23:42 61° W 05:29:47 10° S
Celestis-02/Orion 38 4.4 05:20:44 10° SSE 05:25:54 77° WSW 05:27:46 40° NW
EO 1 Del DPAF 3.9 05:23:24 10° SSE 05:27:09 55° ENE 05:29:32 21° N
Cosmos 1354 Rocket 4.0 05:28:30 52° WNW 05:29:17 57° WSW 05:34:23 10° S
Landsat 4 3.8 05:25:43 10° S 05:28:54 63° S 05:28:54 63° S
Cosmos 1943 Rocket 4.0 05:27:03 10° N 05:31:52 27° NE 05:36:38 10° ESE
Okean 1-7 4.2 05:28:16 10° N 05:32:29 43° ENE 05:36:38 10° SSE
CZ-4B DEB 4.5 05:30:42 10° N 05:35:57 43° WNW 05:37:12 37° WSW
Hubble Space Telescope 3.4 05:36:30 10° S 05:37:15 10° S 05:38:00 10° S
USA 32 3.9 05:32:29 10° S 05:37:42 77° W 05:42:57 10° N
Cosmos 2237 Rocket 3.7 05:39:35 20° NNW 05:39:35 20° NNW 05:42:23 10° N
Cosmos 2233 Rocket 3.8 05:37:45 10° NNW 05:43:52 68° W 05:49:55 10° S
SKYMED 2 3.5 05:40:04 10° SSE 05:44:25 87° ENE 05:48:47 10° NNW
Cosmos 2333 Rocket 4.2 05:48:35 13° NNW 05:48:35 13° NNW 05:49:54 10° NNW
Gbstr 26 Del rocket 4.2 05:46:28 25° NNW 05:47:06 26° N 05:50:34 10° NE
ATLAS 5 CENTAUR R/B 3.5 05:43:42 10° S 05:47:46 33° ESE 05:52:11 10° NE
Abrixas rocket 3.3 05:49:49 30° N 05:49:58 30° N 05:52:51 10° ENE
DELTA 2 R/B (1) 4.0 05:48:34 29° WSW 05:51:05 50° SSW 05:56:27 10° ESE
Cosmos 1825 2.1 05:47:29 10° S 05:51:15 86° E 05:55:03 10° N
BREEZE-M DEB (TANK) 3.2 05:50:44 36° WNW 05:51:59 58° N 05:55:43 10° E
Cosmos 2221 Rocket 3.7 05:54:02 10° N 05:58:31 76° E 06:03:01 10° SSE
Intercosmos 25 3.0 05:56:50 15° NNW 05:59:29 78° W 06:03:48 10° S
Meteor 2-3 Rocket 4.0 05:55:04 10° SW 06:00:32 44° WNW 06:05:59 10° N
Okean-O 2.5 05:56:26 10° N 06:00:51 68° WNW 06:05:15 10° SSW
USA 267 4.4 05:55:40 10° ENE 06:01:16 32° NNE 06:06:11 13° NW
Lacrosse 5 rocket 1.8 05:59:41 28° W 06:01:47 50° NW 06:06:20 10° NE
Meteor 1-10 Rocket 4.3 05:56:36 10° N 06:02:34 86° W 06:08:31 10° S
Atlas Centaur 2 4.5 05:58:48 13° WSW 06:04:03 24° SSW 06:10:29 10° SSE
Cosmos 1703 Rocket 3.7 06:06:19 10° NNW 06:10:33 49° W 06:14:44 10° SSW
Cosmos 1441 Rocket 3.3 06:08:24 10° N 06:12:12 75° E 06:15:56 10° SSE
Cosmos 1606 2.9 06:09:47 12° NNW 06:13:10 46° W 06:16:51 10° SSW
Cosmos 1992 Rocket 4.5 06:08:48 10° SW 06:13:37 37° WNW 06:18:28 10° N
SL-16 R/B 3.2 06:11:34 20° W 06:13:44 26° NW 06:18:26 10° N
Cosmos 1869 Rocket 3.5 06:12:10 10° SSW 06:16:28 61° W 06:20:51 10° N
Cosmos 1777 Rocket 4.3 06:12:50 10° NNW 06:18:04 70° ENE 06:23:14 10° SSE
Cosmos 1603 3.7 06:12:45 10° SW 06:18:19 60° WNW 06:23:58 10° NNE
NOSS 3-1 (C) 4.2 06:14:01 12° NW 06:21:03 59° WSW 06:29:20 10° SSE
Cosmos 1891 Rocket 4.4 06:17:28 10° N 06:23:32 88° W 06:29:39 10° S
NOAA 6 4.3 06:20:20 10° N 06:25:08 42° WNW 06:29:56 10° SW
Cosmos 1782 3.4 06:21:34 10° NNW 06:25:13 35° W 06:28:50 10° SSW
Cosmos 1900 4.5 06:24:04 10° SW 06:29:08 57° NW 06:34:15 10° NNE
CZ-2C R/B 2.5 06:25:11 10° N 06:30:22 73° WNW 06:35:26 10° SSW
ATLAS 2AS CENTAUR R/B 4.2 06:24:28 10° NNW 06:31:50 37° NE 06:38:45 10° ESE
COSMO-SKYMED 1 3.5 06:28:54 10° SSW 06:32:38 28° W 06:36:24 10° NW
Cosmos 1408 3.7 06:31:54 10° SW 06:34:59 24° WNW 06:38:05 10° NNW
Cosmos 2369 Rocket 2.2 06:32:12 10° NNW 06:37:44 64° WSW 06:43:14 10° S
Ariane Rocket 3.8 06:34:37 10° NNE 06:39:36 56° ESE 06:44:33 10° S
PAYLOAD A 4.5 06:37:22 10° N 06:42:16 42° WNW 06:47:16 10° SW
Cosmos 405 Rocket 3.3 06:39:47 10° NNW 06:43:10 34° W 06:46:34 10° SSW
Cosmos 2034 Rocket 4.0 06:37:30 10° NNW 06:43:45 73° W 06:49:53 10° S
Cosmos 968 Rocket 4.4 06:40:39 10° NW 06:45:09 29° W 06:49:38 10° SSW
SL-8 R/B 3.7 06:40:38 10° WSW 06:45:24 77° NNW 06:50:12 10° ENE
NOSS 3-1 (A) 4.3 06:38:03 10° NW 06:45:33 57° WSW 06:53:47 10° SSE
IDEFIX/ARIANE 42P 2.9 06:41:59 10° N 06:46:49 40° WNW 06:51:37 10° SW
PSLV R/B 3.5 06:44:13 10° WSW 06:47:20 59° S 06:50:30 10° E
Thor Agena Rocket 3.5 06:42:26 10° S 06:47:28 62° WSW 06:52:29 10° NNW
Cosmos 1674 Rocket 4.0 06:44:26 10° N 06:48:43 63° E 06:53:00 10° SSE
Okean 3 4.3 06:51:39 10° N 06:55:47 53° E 06:59:55 10° SSE
Cosmos 1862 4.0 06:55:45 10° SW 06:59:20 33° WNW 07:02:58 10° N
IRAS Rocket 4.2 06:54:16 10° NNE 06:59:47 84° WNW 07:05:16 10° SSW
BREEZE-M DEB (TANK) 4.0 06:43:37 10° W 07:00:04 54° NNW 07:03:48 10° ENE
Lacrosse 4 Rocket 2.0 06:56:24 10° SSW 07:00:44 66° ESE 07:04:59 10° NE
